Location: Lane
(33.5226°N, 79.8788°W)
Time: 20:00:46
(UTC+00:00)

Courier 1B Rocket - Pass Details

Date: 05 October 2022
Orbit: 920 x 1202 km, 28.3° (Epoch: 01 December)

Event Time Altitude Azimuth Distance (km) Brightness Sun altitude
Rises 01:30:26 0° 262° (W) 3,738 8.9 -31.9°
Reaches altitude 10° 01:33:14 10° 258° (WSW) 2,746 8.0 -32.5°
Enters shadow 01:38:01 43° 228° (SW) 1,309 5.7 -33.4°
Maximum altitude 01:39:38 54° 182° (S) 1,134 - -33.7°
Drops below altitude 10° 01:45:44 10° 106° (ESE) 2,617 - -34.9°
Sets 01:48:21 0° 102° (ESE) 3,549 - -35.4°
